Weather History for Clines Corner, NM

Change the Weather History Date:

Tuesday, November 13, 2012

  Actual Average (KSAF) Record (KSAF)
Temperature  
Mean Temperature 36 °F -  
Max Temperature 51 °F 58 °F 71 °F (1999)
Min Temperature 21 °F 28 °F 12 °F (2014)
Degree Days  
Heating Degree Days 29    
Moisture  
Dew Point 0 °F    
Average Humidity 24    
Maximum Humidity 35    
Minimum Humidity 11    
Precipitation  
Precipitation 0.00 in - - ()
Sea Level Pressure  
Sea Level Pressure 30.26 in    
Wind  
Wind Speed 9 mph (WNW)    
Max Wind Speed 22 mph    
Max Gust Speed 25 mph    
Visibility 10 miles    
Events      
Averages and records for this station are not official NWS values.
T = Trace of Precipitation, MM = Missing Value Source: NWS Daily Summary

Daily Weather History Graph

Daily Weather History Graph

Search for Another Location

Airport:

Trip Planner

Search our weather history database for the weather conditions in past years. The results will help you decide how hot, cold, wet, or windy it might be!

Date:

Astronomy

Nov. 13, 2012 Rise Set
Actual Time 6:35 AM MST 4:57 PM MST
Civil Twilight 6:08 AM MST 5:24 PM MST
Nautical Twilight 5:38 AM MST 5:55 PM MST
Astronomical Twilight 5:08 AM MST 6:25 PM MST
Moon 6:16 AM MST (11/13) 4:54 PM MST (11/13)
Length of Visible Light 11h 15m
Length of Day
10h 22m
Waning Crescent, 0% of the Moon is Illuminated
Nov 13
Waning Crescent
Nov 13
New
Nov 20
First Quarter
Nov 28
Full
Dec 6
Last Quarter

Hourly Weather History & Observations

Time (MST) Temp. Windchill Dew Point Humidity Pressure Visibility Wind Dir Wind Speed Gust Speed Precip Events Conditions
12:53 AM 32.0 °F - -7.1 °F 18% 30.27 in 10.0 mi Calm Calm - N/A   Clear
1:53 AM 25.0 °F 20.7 °F -5.1 °F 27% 30.27 in 10.0 mi NW 3.5 mph - N/A   Clear
2:53 AM 23.0 °F 14.7 °F -2.9 °F 32% 30.28 in 10.0 mi SW 6.9 mph - N/A   Clear
3:53 AM 21.9 °F 12.5 °F -2.9 °F 34% 30.27 in 10.0 mi West 8.1 mph - N/A   Clear
4:53 AM 21.0 °F 10.6 °F -4.0 °F 33% 30.31 in 10.0 mi West 9.2 mph - N/A   Clear
5:53 AM 21.9 °F 11.0 °F -2.9 °F 34% 30.32 in 10.0 mi WNW 10.4 mph - N/A   Clear
6:53 AM 21.0 °F 9.3 °F -2.9 °F 35% 30.33 in 10.0 mi WNW 11.5 mph - N/A   Clear
7:53 AM 30.9 °F 22.8 °F -0.9 °F 26% 30.30 in 10.0 mi WNW 9.2 mph - N/A   Clear
8:53 AM 37.9 °F 29.6 °F 1.0 °F 21% 30.27 in 10.0 mi WNW 13.8 mph - N/A   Clear
9:53 AM 42.1 °F 34.9 °F 1.9 °F 19% 30.24 in 10.0 mi NW 13.8 mph - N/A   Clear
10:53 AM 46.9 °F - 1.0 °F 15% 30.20 in 10.0 mi NW 15.0 mph - N/A   Clear
11:53 AM 48.0 °F - 1.0 °F 14% 30.18 in 10.0 mi WNW 16.1 mph - N/A   Clear
12:53 PM 50.0 °F - -2.0 °F 12% 30.14 in 10.0 mi NNW 18.4 mph 21.9 mph N/A   Clear
1:53 PM 51.1 °F - -2.0 °F 11% 30.17 in 10.0 mi NW 18.4 mph 25.3 mph N/A   Clear
2:53 PM 50.0 °F - -2.0 °F 12% 30.18 in 10.0 mi WNW 20.7 mph - N/A   Clear
3:53 PM 48.9 °F - -0.9 °F 13% 30.19 in 10.0 mi WNW 21.9 mph - N/A   Clear
4:53 PM 43.0 °F 36.4 °F 1.9 °F 18% 30.25 in 10.0 mi WNW 12.7 mph - N/A   Clear
5:53 PM 39.9 °F 31.1 °F 3.0 °F 21% 30.28 in 10.0 mi WNW 17.3 mph - N/A   Clear
6:53 PM 37.0 °F 29.3 °F 3.0 °F 24% 30.32 in 10.0 mi NNW 11.5 mph - N/A   Clear
7:53 PM 35.1 °F 25.9 °F 3.9 °F 27% 30.29 in 10.0 mi WNW 13.8 mph - N/A   Clear
8:53 PM 32.0 °F 23.0 °F 3.9 °F 31% 30.29 in 10.0 mi WNW 11.5 mph - N/A   Clear
9:53 PM 32.0 °F 23.6 °F 5.0 °F 32% 30.27 in 10.0 mi WNW 10.4 mph - N/A   Clear
10:53 PM 33.1 °F 24.9 °F 5.0 °F 31% 30.26 in 10.0 mi NNW 10.4 mph - N/A   Clear
11:53 PM 35.1 °F 29.3 °F 6.1 °F 30% 30.25 in 10.0 mi North 6.9 mph - N/A   Clear